Location: Monroe
(41.9160°N, 83.3980°W)
Time: 23:23:03
(UTC-04:00)

ISS - All Passes

Search period start: 28 March 2017 00:00
Search period end: 07 April 2017 00:00
Orbit: 399 x 409 km, 51.6° (Epoch: 29 March)

Date Brightness Start Highest point End Pass type
(mag) Time Alt. Az. Time Alt. Az. Time Alt. Az.
28 Mar - 01:15:23 10° NNW 01:17:34 16° N 01:19:45 10° NE night (unlit)
28 Mar - 02:51:33 10° NW 02:54:41 41° NNE 02:57:50 10° E night (unlit)
28 Mar - 04:28:15 10° WNW 04:31:03 26° SW 04:33:50 10° SSE night (unlit)
28 Mar - 21:07:33 10° SW 21:10:47 78° SE 21:14:03 10° ENE visible
28 Mar - 22:44:55 10° WNW 22:47:34 22° NNW 22:50:13 10° NE visible
29 Mar - 00:22:55 10° NW 00:24:55 15° N 00:26:56 10° NE night (unlit)
29 Mar - 01:59:19 10° NW 02:02:12 27° NNE 02:05:05 10° E night (unlit)
29 Mar - 03:35:36 10° WNW 03:38:48 49° SW 03:42:00 10° SE night (unlit)
29 Mar - 20:15:26 10° SSW 20:18:29 39° SE 20:21:34 10° ENE daylight
29 Mar - 21:52:04 10° W 21:55:01 30° NNW 21:57:58 10° NE visible
29 Mar - 23:30:13 10° NW 23:32:15 15° N 23:34:17 10° NE visible
30 Mar - 01:07:03 10° NW 01:09:37 21° NNE 01:12:12 10° ENE night (unlit)
30 Mar - 02:43:10 10° NW 02:46:28 86° NE 02:49:46 10° SE night (unlit)
30 Mar - 04:21:27 10° WSW 04:22:29 11° SW 04:23:30 10° SSW night (unlit)
30 Mar - 19:23:45 10° S 19:26:15 21° SE 19:28:46 10° E daylight
30 Mar - 20:59:22 10° WSW 21:02:31 47° NNW 21:05:42 10° NE visible
30 Mar - 22:37:21 10° NW 22:39:35 17° N 22:41:49 10° NNE visible
31 Mar - 00:14:44 10° NNW 00:16:59 17° N 00:19:15 10° NE night (unlit)
31 Mar - 01:50:50 10° NW 01:54:03 48° NNE 01:57:15 10° ESE night (unlit)
31 Mar - 03:27:46 10° W 03:30:19 21° SW 03:32:51 10° S night (unlit)
31 Mar - 18:33:10 10° SE 18:34:06 11° SE 18:35:02 10° ESE daylight
31 Mar - 20:06:51 10° SW 20:10:06 85° NNW 20:13:22 10° NE daylight
31 Mar - 21:44:24 10° WNW 21:46:56 20° NNW 21:49:29 10° NE visible
31 Mar - 23:22:16 10° NW 23:24:19 15° N 23:26:21 10° NE visible
01 Apr - 00:58:34 10° NW 01:01:32 31° NNE 01:04:31 10° E night (unlit)
01 Apr - 02:34:58 10° WNW 02:38:04 39° SW 02:41:09 10° SSE night (unlit)
01 Apr - 19:14:35 10° SW 19:17:43 49° SE 19:20:54 10° ENE daylight
01 Apr - 20:51:30 10° W 20:54:20 27° NNW 20:57:11 10° NE visible
01 Apr - 22:29:37 10° NW 22:31:36 15° N 22:33:37 10° NE visible
02 Apr - 00:06:17 10° NW 00:08:57 22° NNE 00:11:37 10° ENE night (unlit)
02 Apr - 01:42:26 10° WNW 01:45:43 77° SW 01:49:00 10° SE night (unlit)
02 Apr - 18:22:41 10° SSW 18:25:25 25° SE 18:28:11 10° ENE daylight
02 Apr - 19:58:41 10° W 20:01:47 40° NNW 20:04:53 10° NE daylight
02 Apr - 21:36:45 10° NW 21:38:54 16° N 21:41:03 10° NNE visible
02 Apr - 23:13:57 10° NNW 23:16:18 18° NNE 23:18:39 10° ENE visible
03 Apr - 00:50:03 10° NW 00:53:17 58° NNE 00:56:32 10° ESE night (unlit)
03 Apr - 02:27:15 10° W 02:29:28 17° SW 02:31:40 10° S night (unlit)
03 Apr - 17:31:29 10° SSE 17:33:12 14° SE 17:34:55 10° E daylight
03 Apr - 19:06:03 10° WSW 19:09:17 69° NNW 19:12:32 10° NE daylight
03 Apr - 20:43:47 10° WNW 20:46:12 19° NNW 20:48:37 10° NNE visible
03 Apr - 22:21:31 10° NNW 22:23:35 16° N 22:25:41 10° NE visible
03 Apr - 23:57:42 10° NW 00:00:46 35° NNE 00:03:49 10° E visible
04 Apr - 01:34:14 10° WNW 01:37:12 31° SW 01:40:09 10° SSE night (unlit)
04 Apr - 18:13:39 10° SW 18:16:51 62° SE 18:20:05 10° ENE daylight
04 Apr - 19:50:49 10° WNW 19:53:32 24° NNW 19:56:18 10° NE daylight
04 Apr - 21:28:53 10° NW 21:30:51 15° N 21:32:50 10° NE visible
04 Apr - 23:05:24 10° NW 23:08:10 24° NNE 23:10:56 10° ENE visible
05 Apr - 00:41:36 10° WNW 00:44:51 61° SW 00:48:05 10° SE night (unlit)
05 Apr - 17:21:35 10° SSW 17:24:30 31° SE 17:27:26 10° ENE daylight
05 Apr - 18:57:54 10° W 19:00:55 34° NNW 19:03:57 10° NE daylight
05 Apr - 20:36:02 10° NW 20:38:06 15° N 20:40:10 10° NNE visible
05 Apr - 22:13:03 10° NNW 22:15:29 19° NNE 22:17:56 10° ENE visible
05 Apr - 23:49:07 10° NW 23:52:24 71° NNE 23:55:40 10° ESE visible
06 Apr - 01:26:44 10° W 01:28:29 14° SW 01:30:14 10° SSW night (unlit)
06 Apr - 16:30:02 10° S 16:32:12 17° SE 16:34:23 10° E daylight
06 Apr - 18:05:10 10° WSW 18:08:22 57° NNW 18:11:35 10° NE daylight
06 Apr - 19:43:03 10° WNW 19:45:21 18° NNW 19:47:40 10° NNE daylight
06 Apr - 21:20:36 10° NNW 21:22:45 16° N 21:24:54 10° NE visible
06 Apr - 22:56:44 10° NW 22:59:52 41° NNE 23:02:59 10° E visible
